QPF
0.01 0.00 0.00 0.00 0.00 0.00 0.00 0.00 0.00 0.00 0.00 0.00 0.00 0.00 0.00 0.00 0.00 0.00 0.00 0.00 0.00 0.00 0.00 0.00 0.00 0.00 0.01 0.01 0.01 0.00 0.00 0.00 0.00 0.00 0.00 0.00 0.00 0.01 0.00 0.00 0.00 0.00 0.00
0.01 0.00 0.00 0.00 0.00 0.00 0.00 0.00 0.00 0.00 0.00 0.00 0.00 0.00 0.00 0.00 0.00 0.00 0.00 0.00 0.00 0.00 0.00 0.00 0.00 0.00 0.01 0.01 0.01 0.01 0.00 0.01 0.01 0.01 0.00 0.00 0.00 0.01 0.00 0.00 0.00 0.00 0.00
0.01 0.00 0.00 0.00 0.00 0.00 0.00 0.00 0.00 0.00 0.00 0.00 0.00 0.00 0.00 0.00 0.00 0.00 0.00 0.00 0.00 0.00 0.00 0.00 0.00 0.01 0.01 0.01 0.01 0.01 0.01 0.01 0.01 0.01 0.00 0.00 0.00 0.00 0.00 0.00 0.00 0.00 0.00
0.01 0.00 0.00 0.00 0.00 0.00 0.00 0.00 0.00 0.00 0.00 0.00 0.00 0.00 0.00 0.00 0.00 0.00 0.00 0.00 0.00 0.00 0.00 0.00 0.00 0.01 0.01 0.01 0.01 0.01 0.01 0.02 0.03 0.03 0.02 0.00 0.00 0.00 0.00 0.00 0.00 0.00 0.00
0.01 0.00 0.00 0.00 0.00 0.00 0.00 0.00 0.00 0.00 0.00 0.00 0.00 0.00 0.00 0.00 0.00 0.00 0.00 0.00 0.00 0.00 0.00 0.00 0.01 0.01 0.01 0.01 0.01 0.01 0.02 0.03 0.06 0.07 0.05 0.02 0.01 0.00 0.00 0.00 0.00 0.00 0.00
0.02 0.00 0.00 0.00 0.00 0.00 0.00 0.00 0.00 0.00 0.00 0.00 0.00 0.01 0.01 0.01 0.00 0.00 0.01 0.01 0.01 0.00 0.00 0.00 0.01 0.01 0.01 0.01 0.01 0.02 0.03 0.05 0.07 0.08 0.09 0.04 0.02 0.01 0.00 0.00 0.00 0.00 0.00
0.04 0.01 0.00 0.00 0.00 0.00 0.00 0.00 0.00 0.00 0.01 0.01 0.01 0.01 0.01 0.01 0.01 0.01 0.01 0.01 0.01 0.01 0.01 0.01 0.01 0.01 0.01 0.01 0.01 0.02 0.03 0.06 0.07 0.09 0.13 0.07 0.03 0.02 0.00 0.00 0.00 0.00 0.00
0.04 0.02 0.01 0.01 0.01 0.00 0.00 0.01 0.01 0.01 0.01 0.01 0.01 0.01 0.02 0.02 0.02 0.02 0.01 0.01 0.01 0.01 0.01 0.01 0.01 0.01 0.00 0.00 0.01 0.01 0.03 0.05 0.07 0.12 0.12 0.09 0.05 0.03 0.01 0.00 0.00 0.00 0.00
0.06 0.04 0.02 0.01 0.01 0.01 0.01 0.01 0.01 0.01 0.01 0.01 0.01 0.02 0.02 0.02 0.02 0.01 0.01 0.01 0.02 0.01 0.01 0.01 0.01 0.00 0.00 0.00 0.00 0.01 0.02 0.05 0.07 0.10 0.11 0.08 0.06 0.04 0.01 0.00 0.00 0.00 0.00
0.10 0.05 0.02 0.01 0.01 0.01 0.01 0.01 0.01 0.01 0.02 0.02 0.02 0.02 0.02 0.02 0.02 0.02 0.01 0.01 0.01 0.01 0.01 0.01 0.01 0.00 0.00 0.00 0.00 0.00 0.01 0.04 0.05 0.08 0.10 0.08 0.08 0.06 0.03 0.01 0.00 0.00 0.01
0.22 0.10 0.07 0.04 0.03 0.02 0.02 0.01 0.01 0.01 0.02 0.01 0.01 0.02 0.01 0.01 0.01 0.01 0.01 0.02 0.01 0.01 0.01 0.01 0.01 0.00 0.00 0.00 0.00 0.01 0.01 0.03 0.04 0.08 0.13 0.11 0.11 0.06 0.03 0.02 0.01 0.01 0.01
0.36 0.29 0.25 0.15 0.09 0.06 0.04 0.03 0.03 0.03 0.02 0.02 0.01 0.01 0.01 0.01 0.02 0.02 0.03 0.05 0.04 0.02 0.02 0.01 0.01 0.01 0.00 0.00 0.00 0.00 0.01 0.03 0.04 0.11 0.12 0.11 0.10 0.07 0.04 0.02 0.02 0.01 0.02
0.44 0.32 0.40 0.28 0.14 0.13 0.12 0.06 0.03 0.03 0.02 0.01 0.02 0.01 0.01 0.03 0.04 0.05 0.05 0.06 0.06 0.04 0.02 0.02 0.02 0.01 0.01 0.01 0.01 0.01 0.02 0.03 0.05 0.12 0.15 0.13 0.09 0.07 0.04 0.02 0.02 0.01 0.02
0.54 0.40 0.33 0.27 0.20 0.18 0.18 0.09 0.09 0.07 0.05 0.04 0.06 0.05 0.05 0.07 0.07 0.10 0.14 0.09 0.07 0.05 0.04 0.03 0.03 0.02 0.03 0.04 0.04 0.05 0.05 0.04 0.05 0.11 0.16 0.13 0.09 0.08 0.05 0.02 0.01 0.01 0.02
0.50 0.39 0.32 0.36 0.29 0.25 0.25 0.15 0.19 0.22 0.13 0.12 0.08 0.07 0.08 0.06 0.06 0.10 0.15 0.11 0.12 0.11 0.11 0.09 0.08 0.07 0.06 0.07 0.09 0.11 0.12 0.11 0.10 0.10 0.09 0.09 0.07 0.07 0.07 0.04 0.03 0.02 0.02
0.41 0.39 0.35 0.34 0.28 0.20 0.16 0.19 0.20 0.17 0.16 0.17 0.10 0.08 0.10 0.05 0.06 0.08 0.09 0.12 0.14 0.14 0.16 0.15 0.12 0.14 0.14 0.13 0.13 0.16 0.21 0.23 0.18 0.16 0.16 0.11 0.08 0.07 0.07 0.07 0.05 0.04 0.04
0.31 0.28 0.27 0.23 0.15 0.11 0.11 0.12 0.12 0.12 0.13 0.14 0.11 0.11 0.12 0.08 0.06 0.08 0.11 0.13 0.14 0.12 0.10 0.12 0.15 0.18 0.18 0.18 0.18 0.17 0.19 0.32 0.37 0.25 0.19 0.18 0.12 0.11 0.09 0.08 0.06 0.06 0.06
0.19 0.17 0.21 0.20 0.13 0.09 0.09 0.10 0.09 0.09 0.09 0.13 0.13 0.12 0.11 0.07 0.08 0.08 0.09 0.14 0.15 0.12 0.12 0.13 0.15 0.17 0.20 0.21 0.18 0.18 0.17 0.22 0.36 0.40 0.27 0.20 0.17 0.11 0.08 0.07 0.06 0.06 0.07
0.13 0.15 0.17 0.16 0.11 0.09 0.09 0.09 0.09 0.08 0.08 0.11 0.11 0.08 0.08 0.08 0.09 0.09 0.08 0.10 0.14 0.14 0.12 0.13 0.15 0.16 0.19 0.21 0.18 0.18 0.19 0.20 0.25 0.33 0.34 0.26 0.20 0.14 0.11 0.09 0.08 0.07 0.07
0.09 0.14 0.19 0.17 0.12 0.09 0.08 0.08 0.09 0.09 0.08 0.10 0.15 0.10 0.07 0.09 0.09 0.09 0.10 0.12 0.12 0.11 0.11 0.13 0.14 0.16 0.18 0.22 0.22 0.20 0.19 0.21 0.24 0.25 0.28 0.28 0.22 0.16 0.15 0.14 0.10 0.09 0.10
0.05 0.06 0.10 0.16 0.13 0.09 0.10 0.08 0.07 0.07 0.08 0.09 0.13 0.11 0.08 0.08 0.08 0.08 0.08 0.09 0.10 0.10 0.10 0.12 0.13 0.14 0.15 0.19 0.21 0.19 0.18 0.20 0.22 0.21 0.20 0.22 0.26 0.21 0.17 0.16 0.15 0.14 0.11
0.02 0.04 0.03 0.04 0.06 0.06 0.06 0.06 0.06 0.07 0.07 0.08 0.09 0.08 0.07 0.07 0.07 0.08 0.09 0.10 0.10 0.09 0.09 0.11 0.12 0.12 0.12 0.14 0.16 0.19 0.19 0.21 0.21 0.19 0.18 0.18 0.19 0.20 0.16 0.13 0.13 0.13 0.12
0.01 0.01 0.02 0.03 0.04 0.04 0.05 0.06 0.06 0.06 0.06 0.06 0.07 0.08 0.07 0.06 0.07 0.08 0.08 0.10 0.11 0.10 0.09 0.10 0.10 0.10 0.11 0.13 0.14 0.17 0.15 0.15 0.19 0.16 0.14 0.14 0.15 0.16 0.14 0.12 0.12 0.11 0.10
0.01 0.01 0.01 0.02 0.03 0.04 0.04 0.05 0.06 0.07 0.08 0.09 0.09 0.07 0.07 0.06 0.06 0.07 0.07 0.07 0.07 0.08 0.09 0.10 0.10 0.09 0.10 0.11 0.12 0.13 0.12 0.11 0.12 0.12 0.14 0.15 0.16 0.17 0.16 0.14 0.13 0.12 0.11
0.01 0.01 0.01 0.02 0.02 0.02 0.03 0.03 0.04 0.07 0.10 0.10 0.08 0.08 0.06 0.06 0.05 0.05 0.05 0.05 0.06 0.06 0.06 0.08 0.08 0.08 0.09 0.10 0.11 0.14 0.18 0.16 0.12 0.11 0.12 0.15 0.16 0.16 0.13 0.12 0.12 0.12 0.12
0.00 0.01 0.01 0.01 0.01 0.02 0.02 0.02 0.02 0.03 0.05 0.07 0.08 0.09 0.09 0.06 0.06 0.05 0.05 0.05 0.06 0.07 0.08 0.08 0.09 0.10 0.10 0.11 0.11 0.12 0.15 0.17 0.17 0.15 0.14 0.16 0.19 0.20 0.18 0.18 0.18 0.16 0.14
MSLP
1011.52 1011.12 1010.88 1010.89 1011.13 1011.55 1012.04 1012.52 1012.88 1013.10 1013.19 1013.21 1013.23 1013.31 1013.49 1013.78 1014.14 1014.53 1014.89 1015.20 1015.42 1015.59 1015.74 1015.88 1016.04 1016.23 1016.43 1016.62 1016.77 1016.89 1016.97 1017.02 1017.09 1017.18 1017.32 1017.50 1017.70 1017.89 1018.05 1018.17 1018.25 1018.29 1018.34
1011.20 1010.97 1010.89 1011.03 1011.36 1011.82 1012.31 1012.76 1013.09 1013.29 1013.39 1013.45 1013.53 1013.69 1013.94 1014.27 1014.63 1014.99 1015.30 1015.52 1015.68 1015.79 1015.89 1016.01 1016.17 1016.37 1016.58 1016.77 1016.93 1017.04 1017.11 1017.16 1017.23 1017.34 1017.50 1017.70 1017.93 1018.14 1018.31 1018.43 1018.49 1018.53 1018.56
1010.82 1010.77 1010.86 1011.14 1011.57 1012.08 1012.58 1013.01 1013.32 1013.51 1013.63 1013.72 1013.86 1014.08 1014.37 1014.72 1015.07 1015.38 1015.61 1015.76 1015.84 1015.89 1015.95 1016.06 1016.22 1016.43 1016.65 1016.86 1017.01 1017.12 1017.19 1017.25 1017.33 1017.46 1017.65 1017.88 1018.13 1018.35 1018.53 1018.64 1018.70 1018.73 1018.76
1010.47 1010.58 1010.85 1011.27 1011.80 1012.36 1012.89 1013.31 1013.60 1013.79 1013.91 1014.04 1014.21 1014.46 1014.77 1015.11 1015.43 1015.68 1015.84 1015.91 1015.91 1015.92 1015.96 1016.06 1016.23 1016.45 1016.69 1016.90 1017.06 1017.17 1017.24 1017.31 1017.40 1017.56 1017.77 1018.02 1018.29 1018.52 1018.70 1018.82 1018.88 1018.91 1018.94
1010.23 1010.49 1010.90 1011.46 1012.08 1012.71 1013.25 1013.67 1013.95 1014.13 1014.25 1014.39 1014.58 1014.84 1015.15 1015.46 1015.73 1015.91 1016.00 1016.00 1015.96 1015.93 1015.96 1016.07 1016.26 1016.50 1016.75 1016.96 1017.12 1017.22 1017.29 1017.36 1017.46 1017.63 1017.86 1018.13 1018.40 1018.64 1018.83 1018.94 1019.00 1019.04 1019.09
1010.17 1010.54 1011.07 1011.72 1012.43 1013.09 1013.65 1014.07 1014.33 1014.50 1014.61 1014.75 1014.94 1015.20 1015.49 1015.76 1015.98 1016.11 1016.13 1016.08 1016.01 1015.97 1016.01 1016.14 1016.35 1016.61 1016.86 1017.08 1017.22 1017.31 1017.37 1017.42 1017.52 1017.69 1017.92 1018.19 1018.47 1018.71 1018.90 1019.01 1019.09 1019.14 1019.22
1010.31 1010.74 1011.34 1012.06 1012.81 1013.50 1014.06 1014.46 1014.71 1014.85 1014.96 1015.09 1015.28 1015.52 1015.79 1016.03 1016.20 1016.28 1016.26 1016.19 1016.11 1016.08 1016.14 1016.30 1016.53 1016.80 1017.05 1017.26 1017.38 1017.44 1017.47 1017.51 1017.59 1017.74 1017.96 1018.23 1018.49 1018.73 1018.91 1019.04 1019.12 1019.20 1019.30
1010.66 1011.09 1011.70 1012.44 1013.19 1013.87 1014.41 1014.79 1015.01 1015.15 1015.25 1015.38 1015.56 1015.79 1016.04 1016.25 1016.40 1016.44 1016.40 1016.33 1016.26 1016.25 1016.34 1016.52 1016.78 1017.05 1017.30 1017.48 1017.58 1017.61 1017.60 1017.60 1017.66 1017.78 1017.98 1018.23 1018.48 1018.71 1018.89 1019.02 1019.11 1019.21 1019.34
1011.17 1011.55 1012.14 1012.84 1013.55 1014.19 1014.69 1015.02 1015.22 1015.34 1015.44 1015.58 1015.77 1016.00 1016.24 1016.43 1016.56 1016.59 1016.54 1016.47 1016.42 1016.44 1016.55 1016.77 1017.04 1017.32 1017.56 1017.72 1017.79 1017.78 1017.74 1017.70 1017.72 1017.82 1017.98 1018.20 1018.43 1018.65 1018.82 1018.96 1019.07 1019.19 1019.33
1011.79 1012.11 1012.62 1013.24 1013.88 1014.44 1014.87 1015.16 1015.33 1015.44 1015.54 1015.69 1015.89 1016.13 1016.37 1016.56 1016.67 1016.69 1016.65 1016.58 1016.55 1016.59 1016.74 1016.97 1017.25 1017.54 1017.77 1017.91 1017.96 1017.93 1017.85 1017.79 1017.77 1017.83 1017.96 1018.15 1018.35 1018.55 1018.73 1018.87 1018.99 1019.13 1019.30
1012.50 1012.72 1013.13 1013.66 1014.19 1014.65 1015.00 1015.22 1015.36 1015.45 1015.57 1015.73 1015.95 1016.20 1016.44 1016.62 1016.72 1016.74 1016.69 1016.63 1016.61 1016.67 1016.83 1017.08 1017.38 1017.67 1017.90 1018.04 1018.07 1018.03 1017.94 1017.85 1017.80 1017.83 1017.92 1018.07 1018.25 1018.43 1018.59 1018.74 1018.89 1019.04 1019.22
1013.24 1013.37 1013.68 1014.09 1014.50 1014.84 1015.09 1015.25 1015.35 1015.44 1015.56 1015.74 1015.97 1016.23 1016.46 1016.63 1016.71 1016.71 1016.66 1016.60 1016.58 1016.65 1016.83 1017.08 1017.39 1017.69 1017.93 1018.07 1018.11 1018.07 1017.97 1017.87 1017.80 1017.79 1017.85 1017.96 1018.11 1018.27 1018.43 1018.59 1018.75 1018.92 1019.13
1013.99 1014.05 1014.26 1014.54 1014.83 1015.05 1015.21 1015.29 1015.35 1015.43 1015.55 1015.74 1015.97 1016.22 1016.44 1016.59 1016.65 1016.63 1016.56 1016.49 1016.48 1016.56 1016.74 1017.00 1017.32 1017.62 1017.87 1018.03 1018.09 1018.05 1017.96 1017.85 1017.76 1017.73 1017.75 1017.82 1017.93 1018.07 1018.22 1018.39 1018.57 1018.78 1019.01
1014.71 1014.72 1014.85 1015.02 1015.18 1015.30 1015.36 1015.38 1015.40 1015.46 1015.58 1015.76 1015.99 1016.22 1016.41 1016.52 1016.55 1016.51 1016.43 1016.36 1016.35 1016.43 1016.61 1016.89 1017.20 1017.51 1017.77 1017.94 1018.01 1017.99 1017.91 1017.80 1017.69 1017.63 1017.61 1017.64 1017.72 1017.83 1017.98 1018.16 1018.36 1018.60 1018.87
1015.36 1015.35 1015.41 1015.49 1015.54 1015.56 1015.54 1015.52 1015.51 1015.55 1015.66 1015.83 1016.03 1016.23 1016.38 1016.45 1016.45 1016.39 1016.30 1016.24 1016.23 1016.33 1016.52 1016.79 1017.10 1017.41 1017.66 1017.83 1017.91 1017.89 1017.81 1017.70 1017.58 1017.49 1017.44 1017.43 1017.47 1017.57 1017.71 1017.89 1018.12 1018.40 1018.71
1015.92 1015.90 1015.90 1015.90 1015.88 1015.82 1015.75 1015.68 1015.65 1015.69 1015.78 1015.93 1016.10 1016.25 1016.36 1016.40 1016.37 1016.30 1016.22 1016.17 1016.19 1016.30 1016.50 1016.76 1017.06 1017.34 1017.57 1017.72 1017.79 1017.77 1017.68 1017.56 1017.44 1017.32 1017.24 1017.21 1017.22 1017.29 1017.42 1017.61 1017.86 1018.18 1018.53
1016.36 1016.33 1016.29 1016.23 1016.14 1016.03 1015.92 1015.85 1015.82 1015.85 1015.93 1016.05 1016.18 1016.29 1016.35 1016.36 1016.33 1016.26 1016.21 1016.20 1016.25 1016.38 1016.58 1016.83 1017.09 1017.32 1017.51 1017.61 1017.65 1017.61 1017.52 1017.40 1017.26 1017.15 1017.05 1016.99 1016.99 1017.04 1017.16 1017.34 1017.61 1017.95 1018.35
1016.68 1016.64 1016.56 1016.45 1016.31 1016.18 1016.07 1015.99 1015.98 1016.01 1016.09 1016.19 1016.28 1016.35 1016.37 1016.35 1016.32 1016.28 1016.26 1016.30 1016.39 1016.55 1016.74 1016.96 1017.17 1017.34 1017.45 1017.50 1017.48 1017.42 1017.32 1017.20 1017.08 1016.97 1016.89 1016.83 1016.81 1016.85 1016.95 1017.13 1017.39 1017.74 1018.16
1016.91 1016.85 1016.73 1016.58 1016.42 1016.28 1016.18 1016.13 1016.13 1016.18 1016.26 1016.33 1016.39 1016.41 1016.40 1016.37 1016.34 1016.33 1016.37 1016.45 1016.59 1016.77 1016.96 1017.13 1017.27 1017.36 1017.38 1017.35 1017.28 1017.19 1017.09 1016.99 1016.91 1016.84 1016.78 1016.75 1016.73 1016.76 1016.84 1017.00 1017.24 1017.57 1017.99
1017.10 1017.02 1016.87 1016.69 1016.52 1016.38 1016.30 1016.28 1016.32 1016.38 1016.45 1016.51 1016.52 1016.51 1016.46 1016.42 1016.40 1016.42 1016.50 1016.64 1016.81 1017.00 1017.17 1017.29 1017.35 1017.34 1017.27 1017.16 1017.04 1016.93 1016.84 1016.78 1016.76 1016.75 1016.76 1016.76 1016.77 1016.79 1016.85 1016.97 1017.17 1017.47 1017.86
1017.33 1017.23 1017.05 1016.84 1016.66 1016.54 1016.48 1016.50 1016.56 1016.64 1016.70 1016.72 1016.70 1016.64 1016.56 1016.50 1016.48 1016.52 1016.64 1016.81 1017.00 1017.19 1017.33 1017.39 1017.37 1017.27 1017.11 1016.93 1016.77 1016.65 1016.59 1016.59 1016.65 1016.72 1016.80 1016.87 1016.91 1016.94 1016.98 1017.06 1017.20 1017.44 1017.78
1017.66 1017.54 1017.34 1017.12 1016.94 1016.83 1016.79 1016.83 1016.90 1016.98 1017.03 1017.01 1016.94 1016.83 1016.71 1016.62 1016.59 1016.64 1016.77 1016.95 1017.14 1017.31 1017.41 1017.41 1017.31 1017.13 1016.89 1016.66 1016.47 1016.37 1016.35 1016.43 1016.57 1016.75 1016.91 1017.05 1017.13 1017.18 1017.20 1017.23 1017.32 1017.50 1017.79
1018.12 1018.00 1017.80 1017.58 1017.40 1017.29 1017.26 1017.30 1017.37 1017.43 1017.44 1017.39 1017.26 1017.10 1016.92 1016.79 1016.73 1016.76 1016.88 1017.04 1017.22 1017.35 1017.40 1017.34 1017.18 1016.93 1016.65 1016.39 1016.19 1016.11 1016.14 1016.29 1016.52 1016.79 1017.04 1017.24 1017.38 1017.44 1017.46 1017.47 1017.51 1017.64 1017.87
1018.70 1018.61 1018.42 1018.21 1018.03 1017.92 1017.88 1017.91 1017.96 1017.98 1017.95 1017.84 1017.65 1017.42 1017.19 1017.01 1016.90 1016.89 1016.97 1017.10 1017.23 1017.32 1017.32 1017.22 1017.00 1016.72 1016.40 1016.13 1015.94 1015.88 1015.96 1016.17 1016.47 1016.80 1017.13 1017.39 1017.58 1017.67 1017.71 1017.71 1017.74 1017.84 1018.05
1019.35 1019.31 1019.16 1018.96 1018.78 1018.66 1018.60 1018.60 1018.61 1018.59 1018.50 1018.33 1018.08 1017.79 1017.50 1017.26 1017.09 1017.02 1017.04 1017.12 1017.20 1017.25 1017.20 1017.06 1016.82 1016.52 1016.20 1015.92 1015.75 1015.71 1015.82 1016.05 1016.39 1016.77 1017.13 1017.44 1017.67 1017.82 1017.89 1017.94 1017.99 1018.11 1018.33
1020.00 1020.03 1019.92 1019.74 1019.57 1019.43 1019.35 1019.30 1019.26 1019.19 1019.04 1018.82 1018.52 1018.18 1017.83 1017.52 1017.30 1017.16 1017.12 1017.13 1017.16 1017.15 1017.08 1016.91 1016.67 1016.37 1016.06 1015.80 1015.64 1015.60 1015.71 1015.94 1016.28 1016.66 1017.04 1017.38 1017.65 1017.85 1018.00 1018.11 1018.25 1018.43 1018.71
Thickness
5799 5800 5799 5798 5797 5795 5793 5792 5790 5788 5787 5785 5784 5783 5782 5780 5778 5777 5775 5773 5770 5768 5766 5764 5761 5759 5758 5756 5754 5753 5751 5749 5747 5745 5743 5741 5740 5738 5735 5733 5732 5730 5729
5805 5800 5797 5796 5794 5792 5790 5789 5787 5785 5783 5782 5780 5779 5778 5776 5775 5773 5772 5770 5768 5766 5764 5762 5760 5758 5756 5754 5752 5750 5748 5746 5745 5743 5742 5740 5738 5736 5734 5732 5730 5729 5727
5804 5799 5796 5794 5791 5789 5787 5785 5783 5782 5780 5779 5777 5776 5774 5773 5771 5770 5769 5768 5766 5764 5762 5760 5758 5757 5754 5752 5750 5748 5746 5744 5742 5741 5739 5738 5736 5734 5732 5730 5729 5727 5726
5803 5798 5794 5791 5788 5785 5783 5781 5780 5778 5777 5775 5773 5772 5770 5769 5768 5767 5766 5765 5763 5762 5760 5758 5757 5755 5753 5751 5749 5746 5744 5742 5741 5739 5737 5736 5735 5733 5731 5729 5728 5726 5725
5797 5794 5790 5787 5784 5781 5779 5777 5775 5774 5772 5771 5770 5768 5767 5766 5764 5764 5763 5762 5760 5759 5758 5756 5755 5753 5751 5749 5747 5745 5743 5741 5740 5739 5736 5735 5733 5732 5730 5729 5727 5725 5724
5792 5789 5786 5782 5779 5777 5775 5773 5771 5770 5768 5767 5766 5765 5763 5762 5761 5760 5760 5759 5758 5756 5755 5754 5752 5751 5749 5748 5746 5744 5742 5740 5739 5737 5735 5734 5733 5731 5730 5728 5726 5724 5723
5783 5782 5780 5778 5775 5773 5771 5770 5768 5767 5765 5763 5762 5761 5760 5759 5758 5757 5757 5756 5755 5754 5752 5751 5750 5748 5747 5746 5744 5743 5741 5740 5738 5737 5734 5733 5732 5730 5729 5728 5725 5724 5722
5774 5773 5772 5771 5769 5768 5767 5765 5764 5763 5761 5760 5759 5758 5757 5756 5755 5754 5754 5753 5752 5751 5750 5748 5747 5746 5745 5744 5742 5741 5740 5739 5738 5737 5735 5733 5732 5730 5728 5727 5725 5723 5721
5766 5764 5764 5764 5763 5762 5762 5761 5759 5758 5757 5756 5755 5754 5754 5752 5751 5751 5750 5750 5749 5748 5747 5746 5745 5743 5742 5741 5740 5739 5739 5737 5736 5735 5734 5732 5731 5729 5728 5726 5724 5722 5720
5757 5756 5756 5757 5757 5757 5757 5756 5755 5754 5753 5752 5751 5750 5750 5749 5747 5746 5746 5746 5745 5744 5743 5742 5741 5741 5740 5739 5738 5737 5737 5735 5734 5733 5733 5731 5730 5728 5727 5725 5723 5721 5720
5748 5749 5750 5750 5750 5751 5751 5751 5751 5750 5749 5748 5747 5746 5745 5745 5744 5743 5742 5742 5741 5741 5740 5739 5738 5737 5737 5736 5735 5735 5734 5733 5732 5732 5731 5730 5729 5728 5726 5725 5723 5721 5719
5735 5741 5744 5745 5746 5746 5746 5745 5745 5745 5745 5744 5744 5743 5742 5741 5740 5739 5739 5738 5738 5737 5737 5736 5735 5734 5734 5733 5732 5732 5731 5730 5729 5729 5729 5728 5727 5726 5725 5724 5722 5720 5719
5729 5732 5736 5740 5742 5742 5741 5742 5742 5741 5740 5740 5739 5740 5739 5738 5737 5736 5735 5735 5735 5734 5733 5733 5732 5731 5731 5730 5730 5729 5729 5728 5727 5727 5727 5726 5726 5725 5724 5723 5721 5720 5718
5721 5724 5728 5732 5736 5737 5738 5738 5738 5738 5737 5736 5736 5736 5736 5735 5735 5734 5733 5733 5732 5732 5731 5730 5729 5728 5727 5727 5727 5727 5726 5725 5725 5725 5725 5725 5724 5724 5722 5721 5720 5718 5717
5715 5720 5722 5727 5730 5732 5732 5733 5734 5735 5734 5734 5733 5733 5733 5733 5732 5731 5731 5730 5729 5728 5727 5726 5725 5725 5724 5724 5724 5724 5724 5723 5722 5722 5722 5722 5721 5721 5720 5719 5718 5716 5715
5714 5718 5721 5724 5725 5728 5729 5729 5731 5732 5731 5731 5731 5730 5730 5730 5729 5728 5727 5726 5726 5725 5724 5724 5723 5721 5721 5721 5721 5721 5720 5720 5719 5719 5719 5718 5718 5718 5718 5717 5716 5714 5713
5714 5717 5719 5719 5720 5723 5725 5726 5727 5727 5727 5727 5727 5726 5726 5726 5725 5724 5724 5723 5723 5721 5721 5720 5718 5717 5716 5716 5716 5716 5717 5716 5716 5716 5714 5715 5714 5714 5714 5714 5713 5712 5710
5711 5712 5713 5715 5717 5719 5719 5720 5721 5721 5722 5722 5723 5722 5722 5721 5722 5720 5720 5719 5718 5718 5716 5715 5714 5712 5711 5710 5710 5711 5711 5711 5711 5711 5709 5710 5709 5710 5710 5710 5709 5708 5706
5706 5705 5706 5710 5712 5712 5713 5715 5716 5715 5716 5717 5717 5716 5717 5716 5717 5716 5715 5714 5714 5713 5712 5712 5709 5708 5706 5705 5704 5704 5705 5706 5706 5705 5704 5705 5704 5705 5706 5706 5704 5703 5701
5699 5700 5700 5702 5704 5705 5706 5708 5708 5709 5709 5710 5710 5709 5710 5710 5711 5711 5710 5710 5709 5708 5707 5706 5704 5702 5702 5700 5699 5697 5697 5699 5699 5699 5699 5699 5699 5700 5700 5700 5699 5698 5696
5691 5691 5693 5694 5697 5697 5698 5698 5699 5701 5702 5703 5703 5703 5704 5704 5704 5705 5704 5703 5703 5702 5701 5700 5698 5696 5695 5694 5691 5688 5688 5690 5692 5692 5693 5693 5694 5694 5694 5693 5693 5692 5690
5684 5684 5685 5688 5689 5689 5690 5692 5693 5694 5695 5695 5695 5695 5696 5696 5697 5697 5697 5697 5697 5696 5695 5694 5693 5691 5690 5690 5686 5681 5678 5679 5682 5684 5685 5686 5686 5686 5686 5686 5686 5686 5685
5679 5678 5679 5679 5679 5680 5683 5685 5686 5685 5684 5683 5684 5685 5686 5687 5688 5688 5688 5689 5689 5689 5689 5688 5688 5687 5685 5684 5685 5681 5676 5675 5674 5675 5677 5678 5679 5679 5679 5679 5678 5678 5678
5670 5670 5670 5670 5670 5671 5673 5674 5674 5672 5671 5671 5672 5674 5676 5678 5678 5679 5679 5680 5681 5682 5682 5682 5684 5683 5682 5680 5680 5681 5681 5679 5672 5668 5668 5669 5670 5671 5671 5671 5671 5671 5670
5663 5662 5661 5661 5661 5662 5663 5663 5663 5662 5661 5661 5662 5664 5665 5666 5668 5669 5670 5671 5672 5674 5674 5675 5676 5677 5678 5677 5676 5675 5674 5673 5672 5667 5662 5661 5660 5660 5662 5662 5662 5662 5661
5655 5653 5652 5650 5650 5651 5653 5653 5653 5652 5651 5651 5651 5652 5653 5655 5657 5659 5661 5663 5664 5665 5666 5667 5669 5670 5672 5672 5672 5672 5671 5669 5667 5665 5661 5657 5653 5651 5651 5652 5652 5652 5651